This is the latest recevied weather packets stored in our database for station/object KO5MO-10. If no packets are shown the sender has not sent any weather packets the latest 10 day(s).
| Time | Temp. | Humidity | Pressure | Rain* | Wind** | Luminosity | Snow |
|---|---|---|---|---|---|---|---|
| 1777710343 | 18.33° C | 31% | 1006.9 hPa | - | - | - | - |
| 1777709442 | 18.89° C | 31% | 1007 hPa | - | - | - | - |
| 1777708542 | 18.89° C | 30% | 1006.9 hPa | - | - | - | - |
| 1777707642 | 18.89° C | 32% | 1006.8 hPa | - | - | - | - |
| 1777706742 | 18.89° C | 30% | 1006.6 hPa | - | - | - | - |
| 1777705842 | 18.89° C | 31% | 1006.4 hPa | - | - | - | - |
| 1777704942 | 19.44° C | 29% | 1006.4 hPa | - | - | - | - |
| 1777704042 | 19.44° C | 29% | 1006.5 hPa | - | - | - | - |
| 1777703141 | 20° C | 29% | 1006.3 hPa | - | - | - | - |
| 1777702241 | 20.56° C | 26% | 1006.2 hPa | - | - | - | - |
| 1777701341 | 20.56° C | 26% | 1006.1 hPa | - | - | - | - |
| 1777700441 | 21.11° C | 25% | 1006 hPa | - | - | - | - |
| 1777699541 | 22.22° C | 24% | 1005.8 hPa | - | - | - | - |
| 1777698640 | 22.78° C | 23% | 1005.7 hPa | - | - | - | - |
| 1777697740 | 23.33° C | 23% | 1005.7 hPa | - | - | - | - |
| 1777696840 | 23.33° C | 23% | 1005.7 hPa | - | - | - | - |
| 1777695940 | 23.33° C | 22% | 1005.6 hPa | - | - | - | - |
| 1777695040 | 23.89° C | 22% | 1005.4 hPa | - | - | - | - |
| 1777694139 | 24.44° C | 21% | 1005.3 hPa | - | - | - | - |
| 1777693239 | 25° C | 20% | 1005.2 hPa | - | - | - | - |
| 1777692339 | 26.11° C | 20% | 1005.1 hPa | - | - | - | - |
| 1777691439 | 26.67° C | 19% | 1004.8 hPa | - | - | - | - |
| 1777690539 | 27.78° C | 19% | 1004.7 hPa | - | - | - | - |
| 1777689638 | 28.33° C | 18% | 1004.5 hPa | - | - | - | - |
| 1777688738 | 28.33° C | 18% | 1004.3 hPa | - | - | - | - |
* Rain since midnight (hover to see other rain measurements)
** Current wind speed in m/s (hover to see current wind gust speed)